Avoca, PA

6:22 PM EDT on May 20, 2018 (GMT -0400)
Wilkes-Barre-Scranton International

Weather History for KAVP - May, 2013

Change the Weather History Date:

Thursday, May 2, 2013

  Actual Average Record
Temperature  
Mean Temperature 60 °F 55 °F  
Max Temperature 77 °F 66 °F 87 °F (2001)
Min Temperature 42 °F 44 °F 27 °F (1903)
Degree Days  
Heating Degree Days 5 11  
Month to date heating degree days 12 22  
Since 1 July heating degree days 5621 5995  
Cooling Degree Days 0 0  
Month to date cooling degree days 0 0  
Year to date cooling degree days 4 6  
Growing Degree Days 10 (Base 50)    
Moisture  
Dew Point 37 °F    
Average Humidity 49    
Maximum Humidity 76    
Minimum Humidity 21    
Precipitation  
Precipitation 0.00 in 0.11 in 1.20 in (1985)
Month to date precipitation 0.00 0.21  
Year to date precipitation 6.75 10.49  
Sea Level Pressure  
Sea Level Pressure 30.38 in    
Wind  
Wind Speed 4 mph (ESE)    
Max Wind Speed 13 mph    
Max Gust Speed 22 mph    
Visibility 10 miles    
Events      
T = Trace of Precipitation, MM = Missing Value Source: NWS Daily Summary

Daily Weather History Graph

Daily Weather History Graph

Search for Another Location

Airport or City:

Astronomy

May. 02, 2013 Rise Set
Actual Time 5:58 AM EDT 8:01 PM EDT
Civil Twilight 5:28 AM EDT 8:31 PM EDT
Nautical Twilight 4:51 AM EDT 9:09 PM EDT
Astronomical Twilight 4:11 AM EDT 9:49 PM EDT
Moon 1:49 AM EDT (5/2) 12:44 PM EDT (5/2)
Length of Visible Light 15h 03m
Length of Day
14h 03m
Waning Gibbous, 48% of the Moon is Illuminated
May 2
Waning Gibbous
May 9
New
May 18
First Quarter
May 25
Full
May 31
Last Quarter

Hourly Weather History & Observations

Time (EDT) Temp. Windchill Dew Point Humidity Pressure Visibility Wind Dir Wind Speed Gust Speed Precip Events Conditions
12:54 AM 51.1 °F - 39.0 °F 63% 30.43 in 10.0 mi East 3.5 mph - N/A   Clear
1:54 AM 50.0 °F - 37.9 °F 63% 30.42 in 10.0 mi Calm Calm - N/A   Clear
2:54 AM 48.0 °F - 37.9 °F 68% 30.42 in 10.0 mi East 3.5 mph - N/A   Clear
3:54 AM 46.0 °F 43.9 °F 37.9 °F 73% 30.41 in 10.0 mi East 4.6 mph - N/A   Clear
4:54 AM 44.1 °F 41.5 °F 37.0 °F 76% 30.41 in 10.0 mi East 4.6 mph - N/A   Clear
5:54 AM 44.1 °F 40.8 °F 37.0 °F 76% 30.43 in 10.0 mi ESE 5.8 mph - N/A   Clear
6:54 AM 44.1 °F 41.5 °F 37.0 °F 76% 30.44 in 10.0 mi East 4.6 mph - N/A   Clear
7:54 AM 48.9 °F - 37.9 °F 66% 30.44 in 10.0 mi ENE 5.8 mph - N/A   Clear
8:54 AM 54.0 °F - 39.9 °F 59% 30.45 in 10.0 mi North 3.5 mph - N/A   Clear
9:54 AM 59.0 °F - 37.0 °F 44% 30.44 in 10.0 mi Variable 4.6 mph - N/A   Clear
10:54 AM 63.0 °F - 37.0 °F 38% 30.44 in 10.0 mi Calm Calm - N/A   Clear
11:54 AM 68.0 °F - 35.1 °F 30% 30.41 in 10.0 mi NNW 3.5 mph - N/A   Clear
12:54 PM 71.1 °F - 35.1 °F 27% 30.38 in 10.0 mi Variable 3.5 mph - N/A   Clear
1:54 PM 73.9 °F - 33.1 °F 22% 30.36 in 10.0 mi ESE 8.1 mph 21.9 mph N/A   Clear
2:54 PM 75.0 °F - 33.1 °F 22% 30.35 in 10.0 mi SE 6.9 mph 16.1 mph N/A   Clear
3:54 PM 75.9 °F - 35.1 °F 23% 30.33 in 10.0 mi ENE 3.5 mph - N/A   Clear
4:54 PM 75.9 °F - 35.1 °F 23% 30.32 in 10.0 mi Variable 6.9 mph - N/A   Clear
5:54 PM 75.0 °F - 34.0 °F 22% 30.31 in 10.0 mi SSE 9.2 mph - N/A   Clear
6:54 PM 73.0 °F - 36.0 °F 26% 30.30 in 10.0 mi SSE 8.1 mph - N/A   Clear
7:54 PM 69.1 °F - 37.0 °F 31% 30.30 in 10.0 mi SSW 8.1 mph - N/A   Clear
8:54 PM 66.0 °F - 37.9 °F 36% 30.32 in 10.0 mi WSW 4.6 mph - N/A   Clear
9:54 PM 62.1 °F - 39.0 °F 43% 30.31 in 10.0 mi Calm Calm - N/A   Clear
10:54 PM 61.0 °F - 37.0 °F 41% 30.31 in 10.0 mi Calm Calm - N/A   Clear
11:54 PM 57.9 °F - 37.9 °F 47% 30.30 in 10.0 mi Calm Calm - N/A   Clear